CASSIOPE

Last updated on Fri Sep 11 2026 00:03:31 GMT+0000 (Coordinated Universal Time)

1 39265U 13055A 26253.54891300 .00042393 -49786-6 42427-3 0 9991 2 39265 80.9144 322.5899 0270826 133.2945 229.1233 15.31213850680705
UTC large
Height (km)
Speed (km/s)
/
Latitude / Longitude
Inclination (degrees)
Orbital Period (minutes)
Azimuth
Elevation
Range (km)
Doppler Factor

Next 0 passes for location: London (51.5072 / 0.1276)

No passes found over London.
CASSIOPE